Regional Weather Roundup
Issued by NWS Upton, NY

Current Version | Previous Version | Graphics & Text | Print | Product List | Glossary Off
Versions: 1 2 3 4 5 6 7 8 9 10 11 12 13 14 15 16 17 18 19 20 21 22 23 24 25 26 27 28 29 30 31 32 33 34 35 36 37 38 39 40 41 42 43 44 45 46 47 48 49 50

000
ASUS41 KOKX 291905
RWROKX
REGIONAL WEATHER ROUNDUP
NATIONAL WEATHER SERVICE NEW YORK NY
300 PM EDT TUE JUL 29 2014

NOTE: "FAIR" INDICATES FEW OR NO CLOUDS BELOW 12,000 FEET WITH NO
SIGNIFICANT WEATHER AND/OR OBSTRUCTIONS TO VISIBILITY.

NYZ071-072-176-178-NJZ106-104-292000-
NEW YORK CITY METRO AREA


CITY           SKY/WX    TMP DP  RH WIND       PRES   REMARKS
CENTRAL PARK   MOSUNNY   76  51  41 W8        29.90S
LAGUARDIA APRT PTSUNNY   76  51  41 NW10      29.87S
KENNEDY INTL   PTSUNNY   78  50  37 W14       29.88S
NEWARK/LIBERTY PTSUNNY   76  49  38 W15G23    29.88R
BRNX BOT. GARD   N/A     75  48  38 W7        29.90R
TETERBORO      CLOUDY    76  50  40 NW8       29.87R
$$

NYZ177-179-078>081-292000-
LONG ISLAND NEW YORK

CITY           SKY/WX    TMP DP  RH WIND       PRES   REMARKS
FARMINGDALE    SUNNY     75  50  41 NW8       29.87R
ISLIP          PTSUNNY   76  56  49 SW6       29.85R
SHIRLEY        CLOUDY    73  55  53 SW9       29.88R
WESTHAMPTON    CLOUDY    74  55  51 SW9       29.88R
MONTAUK POINT    N/A     76  57  51 W7        29.88R
$$

NYZ052-065-067-292000-
HUDSON VALLEY

CITY           SKY/WX    TMP DP  RH WIND       PRES   REMARKS
WHITE PLAINS   MOSUNNY   72  51  47 NW8       29.88R
NEWBURGH       PTSUNNY   73  52  46 W7        29.89
MONTGOMERY     CLOUDY    73  50  44 W8        29.88R
POUGHKEEPSIE   MOSUNNY   73  52  47 SW6       29.86S
ALBANY         MOSUNNY   72  49  44 W8        29.87R
$$

NJZ001-105-106-008-010-013-015-019>022-104-292000-
NEW JERSEY

CITY           SKY/WX    TMP DP  RH WIND       PRES   REMARKS
NEWARK/LIBERTY PTSUNNY   76  49  38 W15G23    29.88R
TETERBORO      CLOUDY    76  50  40 NW8       29.87R
CALDWELL       MOSUNNY   74  49  41 VRB5      29.89R
MORRISTOWN     PTSUNNY   75  48  38 W9        29.89S
SOMERVILLE     CLOUDY    75  52  44 VRB3      29.88R
LINDEN         MOCLDY    76  51  40 NW12      29.90R
SUSSEX         PTSUNNY   75  51  43 W5        29.89S
ANDOVER          N/A     71  49  45 VRB7      29.90S
TRENTON        CLOUDY    74  51  44 VRB6      29.90R
MILLVILLE      CLOUDY    75  55  49 W5        29.91R
ATLANTIC CITY  CLOUDY    76  55  48 VRB7      29.90R
WRIGHTSTOWN    PTSUNNY   73  55  51 N3        29.88S
TOMS RIVER     CLOUDY    75  52  43 CALM      29.90S
BELMAR         CLOUDY    75  52  43 W7        29.90R
$$

PAZ047>061-062-071-292000-
EASTERN PENNSYLVANIA

CITY           SKY/WX    TMP DP  RH WIND       PRES   REMARKS
PHILADELPHIA   CLOUDY    74  51  44 W6        29.91R
ALLENTOWN      PTSUNNY   75  49  39 W9G16     29.90S
SCRANTON       CLOUDY    69  46  43 NW9       29.92S
$$

CTZ002-004>006-009-010-012-RIZ004-006-007-MAZ004-011-015-292000-
SOUTHERN NEW ENGLAND
 IN CT

CITY           SKY/WX    TMP DP  RH WIND       PRES   REMARKS
BRADLEY INTL   PTSUNNY   76  51  41 NW8       29.85R
HARTFORD       PTSUNNY   75  49  39 W8        29.85R
DANBURY        PTSUNNY   71  51  49 VRB5      29.89R
WTRBRY/OXFORD  PTSUNNY   72  54  53 W6        29.90R
BRIDGEPORT     MOSUNNY   77  57  50 SW14      29.87R
MERIDEN        PTSUNNY   76  51  41 VRB5      29.86R
NEW HAVEN      PTSUNNY   74  57  55 SW8       29.87R
CHESTER        FAIR      75  54  46 W7        29.87R
GROTON         SUNNY     74  59  59 SW14      29.84R
WILLIMANTIC    PTSUNNY   75  54  47 NW8       29.85R

 IN RI

CITY           SKY/WX    TMP DP  RH WIND       PRES   REMARKS
PROVIDENCE     PTSUNNY   77  54  44 W7        29.84R
BLOCK ISLAND   SUNNY     75  57  53 W13       29.87R
WESTERLY       SUNNY     76  56  49 SW13      29.86R

 IN MA

CITY           SKY/WX    TMP DP  RH WIND       PRES   REMARKS
BOSTON         NOT AVBL
WORCESTER      PTSUNNY   70  54  56 W10       29.86R
WESTFIELD      PTSUNNY   75  51  43 W7        29.85R
PROVINCETOWN   MOSUNNY   73  57  56 CALM      29.85R
NANTUCKET      SUNNY     71  61  70 SW12      29.86R
$$

ANZ330-335-338-340-345-350-353-355-292000-
COASTAL MARINE OBSERVATIONS


STATION/POSITION TIME  SKY/WX   TEMP    WIND        PRES    VSBY  WAVE
                                AIR SEA DIR/SP/G                  HT/PER
                 (UTC)          (F)     (DEG/KT/KT) (MB)    (MI)  (FT/S)
NY HARB ENTRANCE NOT AVBL
4S FIRE IS       NOT AVBL
23SW MTP         1900            71 70              1011.3          4/ 8
HUDSON CANYON    1900            69 75  300/  4/  6 1012.5          4/ 7
EXECUTION ROCKS  1900            75 71  290/  8/ 10   N/A
WESTERN LI SOUND 1900            72     270/  4/  8   N/A           0
CENTRAL LI SOUND 1800            70 71  240/ 10/ 12   N/A           1/ 3
EASTERN LI SOUND 1800            70 68  240/ 12/ 16   N/A
ROBBINS REEF     1900            73     290/ 13/ 18   N/A
$$


>>>>>>>>>>>>>>>>>>>>>>>>>>>> KEY <<<<<<<<<<<<<<<<<<<<<<<<<<<
>                                                          <
>     SKY/WX - SKY CONDITION/PRESENT WEATHER               <
>     TMP    - TEMPERATURE IN FAHRENHEIT                   <
>     DP     - DEWPOINT IN FAHRENHEIT                      <
>     RH     - RELATIVE HUMIDITY IN PERCENT                <
>     WIND   - DIRECTION AND SPEED IN MPH                  <
>     PRES   - MEAN SEA LEVEL PRESSURE IN INCHES OF HG     <
>     WCI    - WIND CHILL INDEX                            <
>     VSB    - VISIBILITY IN MILES                         <
>     HX     - HEAT INDEX                                  <
>     TC     - TEMPERATURE IN CELSIUS                      <
>     VRB    - VARIABLE WIND DIRECTION                     <
>                                                          <
>>>>>>>>>>>>>>>>>>>>>>>>>>>> KEY <<<<<<<<<<<<<<<<<<<<<<<<<<<




USA.gov is the U.S. government's official web portal to all federal, state and local government web resources and services.